Cook, MN

5:11 PM CDT on March 23, 2017 (GMT -0500)
Cook Municipal

Weather History for KCQM - October, 2013

Change the Weather History Date:

Sunday, October 20, 2013

  Actual Average Record
Temperature  
Mean Temperature 30 °F -  
Max Temperature 35 °F 46 °F 68 °F (2003)
Min Temperature 24 °F 30 °F 19 °F (2002)
Degree Days  
Heating Degree Days 36    
Moisture  
Dew Point 30 °F    
Average Humidity 96    
Maximum Humidity 100    
Minimum Humidity 87    
Precipitation  
Precipitation 0.03 in - - ()
Sea Level Pressure  
Sea Level Pressure 29.72 in    
Wind  
Wind Speed 1 mph (WNW)    
Max Wind Speed 10 mph    
Max Gust Speed 17 mph    
Visibility 8 miles    
Events Rain , Snow    
Averages and records for this station are not official NWS values.
T = Trace of Precipitation, MM = Missing Value Source: NWS Daily Summary

Daily Weather History Graph

Daily Weather History Graph

Search for Another Location

Airport or City:

Trip Planner

Search our weather history database for the weather conditions in past years. The results will help you decide how hot, cold, wet, or windy it might be!

Date:

Astronomy

Oct. 20, 2013 Rise Set
Actual Time 7:37 AM CDT 6:12 PM CDT
Civil Twilight 7:06 AM CDT 6:44 PM CDT
Nautical Twilight 6:30 AM CDT 7:19 PM CDT
Astronomical Twilight 5:54 AM CDT 7:55 PM CDT
Moon 7:12 PM CDT (10/20) 9:23 AM CDT (10/20)
Length of Visible Light 11h 37m
Length of Day
10h 35m
Full, 97% of the Moon is Illuminated
Oct 20
Full
Oct 26
Last Quarter
Nov 3
New
Nov 9
First Quarter
Nov 17
Full

Hourly Weather History & Observations

Time (CDT) Temp. Windchill Dew Point Humidity Pressure Visibility Wind Dir Wind Speed Gust Speed Precip Events Conditions
12:16 AM 28.4 °F - 26.6 °F 93% 29.73 in 7.0 mi Calm Calm - N/A   Clear
12:37 AM 28.4 °F - 26.6 °F 93% 29.73 in 7.0 mi Calm Calm - N/A   Clear
12:57 AM 28.4 °F - 28.4 °F 100% 29.72 in 7.0 mi Calm Calm - N/A   Clear
1:16 AM 26.6 °F - 26.6 °F 100% 29.72 in 7.0 mi Calm Calm - N/A   Clear
1:37 AM 26.6 °F - 26.6 °F 100% 29.72 in 7.0 mi Calm Calm - N/A   Clear
1:56 AM 26.6 °F - 26.6 °F 100% 29.72 in 10.0 mi Calm Calm - N/A   Clear
2:17 AM 26.6 °F - 24.8 °F 93% 29.72 in 10.0 mi Calm Calm - N/A   Clear
2:36 AM 24.8 °F - 24.8 °F 100% 29.71 in 10.0 mi Calm Calm - N/A   Clear
2:57 AM 24.8 °F - 24.8 °F 100% 29.71 in 10.0 mi Calm Calm - N/A   Clear
3:16 AM 26.6 °F - 24.8 °F 93% 29.71 in 10.0 mi Calm Calm - N/A   Clear
3:37 AM 24.8 °F - 24.8 °F 100% 29.71 in 10.0 mi Calm Calm - N/A   Clear
3:57 AM 24.8 °F - 24.8 °F 100% 29.71 in 10.0 mi Calm Calm - N/A   Clear
4:16 AM 24.8 °F - 24.8 °F 100% 29.71 in 10.0 mi Calm Calm - N/A   Clear
4:37 AM 24.8 °F - 24.8 °F 100% 29.71 in 10.0 mi Calm Calm - N/A   Clear
4:57 AM 24.8 °F - 24.8 °F 100% 29.70 in 10.0 mi Calm Calm - N/A   Clear
5:16 AM 24.8 °F - 24.8 °F 100% 29.70 in 10.0 mi Calm Calm - N/A   Mostly Cloudy
5:37 AM 24.8 °F - 24.8 °F 100% 29.70 in 10.0 mi Calm Calm - N/A   Overcast
5:57 AM 26.6 °F - 26.6 °F 100% 29.70 in 10.0 mi Calm Calm - N/A   Overcast
6:16 AM 26.6 °F - 24.8 °F 93% 29.70 in 10.0 mi Calm Calm - N/A   Overcast
6:37 AM 26.6 °F - 26.6 °F 100% 29.70 in 10.0 mi Calm Calm - N/A   Overcast
6:56 AM 26.6 °F - 26.6 °F 100% 29.70 in 10.0 mi Calm Calm - N/A   Overcast
7:16 AM 26.6 °F - 26.6 °F 100% 29.70 in 10.0 mi Calm Calm - N/A   Overcast
7:36 AM 26.6 °F - 26.6 °F 100% 29.70 in 10.0 mi Calm Calm - N/A   Overcast
7:56 AM 26.6 °F - 26.6 °F 100% 29.70 in 10.0 mi Calm Calm - N/A   Overcast
8:17 AM 28.4 °F - 26.6 °F 93% 29.71 in 10.0 mi Calm Calm - N/A   Mostly Cloudy
8:36 AM 28.4 °F - 28.4 °F 100% 29.71 in 10.0 mi Calm Calm - N/A   Mostly Cloudy
8:56 AM 28.4 °F - 28.4 °F 100% 29.71 in 1.8 mi Calm Calm - N/A Snow Light Snow
9:17 AM 30.2 °F - 30.2 °F 100% 29.72 in 1.8 mi Calm Calm - N/A Snow Light Snow
9:36 AM 30.2 °F - 30.2 °F 100% 29.72 in 2.5 mi Calm Calm - N/A Snow Light Snow
9:56 AM 30.2 °F - 30.2 °F 100% 29.72 in 1.8 mi Calm Calm - N/A Snow Light Snow
10:17 AM 32.0 °F - 30.2 °F 93% 29.72 in 1.8 mi Calm Calm - N/A Snow Light Snow
10:36 AM 33.8 °F - 32.0 °F 93% 29.72 in 1.5 mi Calm Calm - N/A Snow Light Snow
10:56 AM 33.8 °F - 33.8 °F 100% 29.72 in 4.0 mi Calm Calm - N/A Snow Light Snow
11:17 AM 33.8 °F - 33.8 °F 100% 29.72 in 7.0 mi Calm Calm - 0.01 in Snow Light Snow
11:36 AM 35.6 °F - 33.8 °F 93% 29.72 in 7.0 mi Calm Calm - 0.01 in Rain Light Rain
11:56 AM 35.6 °F 32.8 °F 33.8 °F 93% 29.72 in 5.0 mi South 3.5 mph - N/A Rain Light Rain
12:17 PM 33.8 °F - 33.8 °F 100% 29.72 in 2.5 mi Calm Calm - N/A Rain Rain
12:36 PM 35.6 °F - 33.8 °F 93% 29.72 in 3.0 mi Calm Calm - 0.01 in   Overcast
12:57 PM 35.6 °F - 33.8 °F 93% 29.72 in 3.0 mi Calm Calm - N/A Rain Light Rain
1:17 PM 33.8 °F - 33.8 °F 100% 29.71 in 3.0 mi Calm Calm - N/A Rain Light Rain
1:36 PM 35.6 °F - 33.8 °F 93% 29.71 in 4.0 mi Calm Calm - N/A Rain Light Rain
1:57 PM 35.6 °F - 33.8 °F 93% 29.71 in 3.0 mi Calm Calm - N/A Rain Light Rain
2:16 PM 33.8 °F - 33.8 °F 100% 29.71 in 3.0 mi Calm Calm - N/A Rain Light Rain
2:37 PM 35.6 °F - 33.8 °F 93% 29.71 in 4.0 mi Calm Calm - N/A Rain Light Rain
2:57 PM 35.6 °F - 32.0 °F 87% 29.71 in 7.0 mi Calm Calm - N/A Rain Light Rain
3:16 PM 35.6 °F - 33.8 °F 93% 29.71 in 5.0 mi Calm Calm - N/A Rain Light Rain
3:37 PM 35.6 °F - 33.8 °F 93% 29.71 in 7.0 mi Calm Calm - 0.01 in Rain Light Rain
3:57 PM 35.6 °F - 33.8 °F 93% 29.71 in 7.0 mi Calm Calm - N/A Rain Light Rain
4:16 PM 35.6 °F - 33.8 °F 93% 29.71 in 10.0 mi Calm Calm - N/A Rain Light Rain
4:37 PM 35.6 °F - 33.8 °F 93% 29.71 in 10.0 mi Calm Calm - N/A   Drizzle
4:57 PM 35.6 °F - 33.8 °F 93% 29.72 in 10.0 mi Calm Calm - N/A   Overcast
5:16 PM 35.6 °F - 33.8 °F 93% 29.72 in 10.0 mi Calm Calm - N/A   Drizzle
5:36 PM 35.6 °F - 33.8 °F 93% 29.72 in 10.0 mi Calm Calm - N/A   Drizzle
5:56 PM 35.6 °F 32.8 °F 33.8 °F 93% 29.72 in 10.0 mi West 3.5 mph - N/A   Light Drizzle
6:17 PM 35.6 °F 32.8 °F 33.8 °F 93% 29.73 in 10.0 mi West 3.5 mph - N/A   Overcast
6:36 PM 33.8 °F - 33.8 °F 100% 29.73 in 10.0 mi Calm Calm - N/A   Overcast
6:57 PM 33.8 °F - 32.0 °F 93% 29.74 in 10.0 mi Calm Calm - N/A   Overcast
7:16 PM 33.8 °F - 32.0 °F 93% 29.74 in 10.0 mi Calm Calm - N/A   Overcast
7:37 PM 33.8 °F - 32.0 °F 93% 29.74 in 10.0 mi Calm Calm - N/A   Mostly Cloudy
7:56 PM 33.8 °F 27.7 °F 33.8 °F 100% 29.75 in 7.0 mi West 6.9 mph - N/A   Overcast
8:16 PM 33.8 °F 27.0 °F 33.8 °F 100% 29.75 in 7.0 mi West 8.1 mph - N/A   Overcast
8:36 PM 33.8 °F 27.7 °F 33.8 °F 100% 29.75 in 10.0 mi WNW 6.9 mph - N/A   Overcast
8:56 PM 33.8 °F 27.0 °F 32.0 °F 93% 29.76 in 10.0 mi NW 8.1 mph - N/A   Overcast
9:17 PM 33.8 °F 27.7 °F 30.2 °F 87% 29.76 in 10.0 mi WNW 6.9 mph - N/A   Overcast
9:36 PM 33.8 °F 28.6 °F 30.2 °F 87% 29.76 in 10.0 mi WNW 5.8 mph - N/A Snow Light Snow
9:57 PM 33.8 °F 27.7 °F 30.2 °F 87% 29.76 in 7.0 mi WNW 6.9 mph - N/A Snow Light Snow
10:17 PM 33.8 °F 27.7 °F 30.2 °F 87% 29.76 in 10.0 mi West 6.9 mph - N/A   Overcast
10:36 PM 33.8 °F 27.0 °F 30.2 °F 87% 29.76 in 10.0 mi West 8.1 mph - N/A   Overcast
10:56 PM 32.0 °F 24.2 °F 30.2 °F 93% 29.77 in 10.0 mi WNW 9.2 mph - N/A Snow Light Snow
11:16 PM 32.0 °F 23.6 °F 30.2 °F 93% 29.77 in 10.0 mi West 10.4 mph - N/A   Overcast
11:36 PM 32.0 °F 23.6 °F 28.4 °F 87% 29.77 in 10.0 mi WNW 10.4 mph 17.3 mph N/A   Overcast
11:56 PM 30.2 °F 21.3 °F 28.4 °F 93% 29.77 in 10.0 mi WNW 10.4 mph - N/A   Overcast